TimeEDT,TemperatureF,Dew PointF,Humidity,Sea Level PressureIn,VisibilityMPH,Wind Direction,Wind SpeedMPH,Gust SpeedMPH,PrecipitationIn,Events,Conditions,WindDirDegrees,DateUTC
12:54 AM,60.1,59.0,96,29.98,10.0,Calm,Calm,-,N/A,,Clear,0,2012-09-10 04:54:00
1:54 AM,59.0,57.9,96,29.98,8.0,Calm,Calm,-,N/A,,Clear,0,2012-09-10 05:54:00
2:54 AM,59.0,57.9,96,29.97,9.0,Calm,Calm,-,N/A,,Clear,0,2012-09-10 06:54:00
3:54 AM,57.0,57.0,100,29.98,8.0,West,3.5,-,0.01,,Clear,260,2012-09-10 07:54:00
4:54 AM,59.0,55.9,90,29.99,10.0,Calm,Calm,-,N/A,,Clear,0,2012-09-10 08:54:00
5:54 AM,59.0,55.9,90,30.01,10.0,North,3.5,-,N/A,,Clear,360,2012-09-10 09:54:00
6:54 AM,57.9,55.0,90,30.04,10.0,North,3.5,-,N/A,,Clear,10,2012-09-10 10:54:00
7:54 AM,61.0,57.0,87,30.07,10.0,NNE,4.6,-,N/A,,Clear,20,2012-09-10 11:54:00
8:54 AM,66.9,57.9,73,30.08,10.0,NE,5.8,-,N/A,,Clear,40,2012-09-10 12:54:00
9:54 AM,72.0,55.0,55,30.09,10.0,NE,8.1,-,N/A,,Clear,40,2012-09-10 13:54:00
10:54 AM,75.0,55.0,50,30.11,10.0,NE,9.2,-,N/A,,Clear,40,2012-09-10 14:54:00
11:54 AM,78.1,55.0,45,30.11,10.0,NNE,5.8,-,N/A,,Clear,20,2012-09-10 15:54:00
12:54 PM,79.0,54.0,42,30.09,10.0,North,6.9,-,N/A,,Clear,350,2012-09-10 16:54:00
1:54 PM,80.1,54.0,40,30.08,10.0,NE,6.9,-,N/A,,Clear,40,2012-09-10 17:54:00
2:54 PM,81.0,54.0,39,30.06,10.0,NE,8.1,-,N/A,,Clear,40,2012-09-10 18:54:00
3:54 PM,82.0,55.0,39,30.05,10.0,North,6.9,-,N/A,,Partly Cloudy,360,2012-09-10 19:54:00
4:54 PM,81.0,54.0,39,30.06,10.0,NNE,6.9,-,N/A,,Mostly Cloudy,20,2012-09-10 20:54:00
5:54 PM,80.1,54.0,40,30.07,10.0,North,9.2,-,N/A,,Scattered Clouds,360,2012-09-10 21:54:00
6:54 PM,77.0,57.0,50,30.08,10.0,North,4.6,-,N/A,,Clear,360,2012-09-10 22:54:00
7:54 PM,66.9,62.1,84,30.09,10.0,Calm,Calm,-,N/A,,Clear,0,2012-09-10 23:54:00
8:54 PM,64.9,61.0,87,30.12,10.0,Calm,Calm,-,N/A,,Clear,0,2012-09-11 00:54:00
9:54 PM,63.0,61.0,93,30.13,10.0,Calm,Calm,-,N/A,,Clear,0,2012-09-11 01:54:00
10:54 PM,62.1,60.1,93,30.15,10.0,Calm,Calm,-,N/A,,Clear,0,2012-09-11 02:54:00
11:54 PM,60.1,59.0,96,30.16,5.0,Calm,Calm,-,N/A,,Clear,0,2012-09-11 03:54:00